Location: Unspecified
(0.0000°N, 0.0000°E)
Time: 19:51:32
(UTC+00:00)

STARLINK-30239 - Visible Passes

Search period start: 10 November 2025 00:00
Search period end: 20 November 2025 00:00
Orbit: 558 x 560 km, 43.0° (Epoch: 08 November)

Date Brightness Start Highest point End Pass type
(mag) Time Alt. Az. Time Alt. Az. Time Alt. Az.
10 Nov 4.9 19:02:41 10° WNW 19:06:40 41° SW 19:10:40 10° SSE visible
11 Nov 6.0 19:00:13 10° W 19:03:40 24° SW 19:07:07 10° S visible
12 Nov 6.6 18:58:19 10° WSW 19:00:41 15° SW 19:03:03 10° S visible
13 Nov 4.4 05:14:31 10° SW 05:18:39 58° SE 05:22:48 10° NE visible
14 Nov 3.6 05:11:25 10° SW 05:15:38 77° NW 05:19:50 10° NE visible
15 Nov 6.5 03:29:42 10° S 03:32:04 15° SE 03:34:30 10° E visible
15 Nov 4.0 05:08:37 10° WSW 05:12:37 42° NW 05:16:36 10° NNE visible
16 Nov 5.8 03:29:32 24° SE 03:29:32 24° SE 03:32:34 10° E visible
16 Nov 4.8 05:06:09 10° W 05:09:36 24° NW 05:13:03 10° N visible
17 Nov 6.2 03:29:05 16° ENE 03:29:05 16° ENE 03:30:05 10° ENE visible
17 Nov 5.4 05:05:03 12° WNW 05:06:38 15° NW 05:08:59 10° N visible
